STARLINK-36762, 67868

Orbit data source: Space-Track

STARLINK-36762, 67868 is a payload satellite owned by SpaceX/Seattle (US) in LEO that was launched on Fri, 20 Feb 2026 UTC via an FALCON 9 launch vehicle from the Air Force Eastern Test Range (AFETR). Payload-class satellites include a variety of spacecraft equipped with specific instruments for various scientific and technological missions. These include communications satellites like Starlink; space stations such as the ISS; scientific satellites like the Hubble; Earth observation satellites from companies like Planet Labs, Umbra, and HawkEye 360; GPS; miniature CubeSats for education and research; and military/defense satellites.

Loading next visibility...
Identifier
67868, 2026-034U
Orbit
LEO
Country
Flag of USUS
Related business
Manufacturer
SpaceX/Seattle
Mission
Operational Commercial Communications
Bus & Motor
STARLINK V2MO, Unknown motor
Mass
575 kg wet, ~530 kg dry
Launch date (UTC)
2026-02-20 (4 months ago)
Launch vehicle
FALCON 9
Launch site
Air Force Eastern Test Range (AFETR)
Object type
Payload
Rocket body
Debris
Shape & HBR
Box + 2 Pan, 17.7 m
Radar Cross Section
36.964 m², Large (>1 m²)

Expand to show TLE details & history
Last TLE update: 17 hours ago

TLE from 17 hours ago
0 STARLINK-36762
1 67868U 26034U   26171.15206420  .00025452  00000-0  86796-3 0  9994
2 67868  53.1597  88.2784 0001317  92.1934 267.9218 15.30220810 19720
Epoch: 2026-06-20T03:38Z
TLE epoch observation values (Epoch: 2026-06-20T03:38:58.346Z)
Latitude
-0.00001°
Longitude
125.16449°
Altitude
476.085 km
Speed
7.629 km/s
True Right ascension
05h 53m 06s
True Declination
0° 00' 00"
Sunlit
Object was in daylight at epoch
Visualization orbit readout
Latitude
Unknown
Longitude
Unknown
Altitude
Unknown
Speed
Unknown
Apparent Right ascension
Unknown
Apparent Declination
Unknown
Sunlit
N/A
Visualization observer readout
Local Sidereal Time
07:16:47
Azimuth
Unknown
Elevation
Unknown
Doppler factor
Unknown
Orbital elements
Apogee altitude
476.312 km
Perigee altitude
474.507 km
Semi-major axis
6,853.546 km
Eccentricity
0.00013
Inclination
53.1597°
RAAN
88.2784°
Arg. of periapsis
92.1934°
True anomaly
267.90672°
Mean anomaly
267.9218°
Eccentric anomaly
267.91426°
Mean motion
3.82534 °/min
Orbital period
94.11 mins
BSTAR
0.00086796
Loading maneuver chart data...
Computing Atmospheric mass density...
Loading historical data...
Loading historical data...
Loading historical data...
Loading historical data...
Loading historical data...
Loading historical data...
Loading historical data...

Documentation

Showing up to 5 results
|